Location: Tel Aviv
(32.0670°N, 34.7670°E)
Time: 05:47:00
(UTC+03:00)

Vanguard 2 - Pass Details

Date: 28 January 2022
Orbit: 552 x 2935 km, 32.9° (Epoch: 25 May)

Event Time Altitude Azimuth Distance (km) Brightness Sun altitude
Rises 04:18:29 0° 268° (W) 6,653 - -29.4°
Reaches altitude 10° 04:28:56 10° 239° (WSW) 5,758 - -27.2°
Exits shadow 04:31:46 11° 229° (SW) 5,658 11.5 -26.6°
Maximum altitude 04:32:29 11° 227° (SW) 5,644 11.5 -26.5°
Drops below altitude 10° 04:35:59 10° 215° (SW) 5,641 11.6 -25.7°
Sets 04:45:56 0° 184° (S) 6,217 12.2 -23.6°
